Temperature
6 6 6 6 6 5 5 5 4 3 3 4 4 4 4 4 4 3 3 3 3 3 3 3 3 2 2 2 2 2 2 2 2 2 2 2 2 2
6 6 6 5 5 5 5 4 4 3 3 3 3 3 3 3 3 3 3 3 3 3 2 2 2 2 2 2 1 1 1 1 1 1 1 1 1 2
5 5 5 5 5 4 4 4 4 3 3 3 3 3 3 3 3 2 2 2 2 2 2 2 2 2 2 1 1 1 1 1 1 1 1 1 1 1
5 5 5 5 4 4 4 4 3 3 2 2 3 3 2 2 2 2 2 2 2 2 2 2 2 1 1 1 1 1 1 1 1 1 1 1 1 1
4 4 4 4 4 4 3 3 3 2 2 2 2 2 2 1 1 2 2 2 2 1 1 1 1 1 1 1 1 1 1 0 1 1 1 1 1 1
4 4 4 4 3 3 3 2 2 2 2 2 1 1 1 1 1 1 1 1 1 1 1 1 1 1 1 0 0 0 0 0 0 0 0 0 0 0
4 4 4 3 3 3 2 2 2 2 2 1 1 1 1 1 0 0 0 0 1 1 1 1 1 0 0 0 0 0 -0 -0 -0 -0 -0 0 0 0
3 3 3 3 3 2 2 2 2 1 1 1 1 0 0 0 -0 -0 -1 -0 -0 -0 -0 0 -0 -0 0 -0 0 -0 -0 -0 -0 -0 -0 -0 -0 -0
3 3 2 2 2 2 2 2 1 1 1 1 0 0 0 -0 -1 -1 -1 -1 -1 -1 -1 -0 -0 -0 -0 -0 -0 -0 -0 -0 -1 -1 -1 -1 -0 -0
2 2 2 2 2 1 1 1 1 1 1 1 0 0 -0 -0 -1 -1 -1 -1 -1 -1 -2 -2 -1 -1 -0 -0 -0 -0 -1 -1 -1 -1 -1 -1 -1 -1
1 1 1 1 1 1 1 1 1 1 1 0 0 -0 -0 -0 -1 -1 -1 -2 -2 -2 -2 -2 -2 -2 -1 -1 -1 -1 -1 -1 -1 -1 -1 -1 -1 -1
1 1 1 1 1 1 1 0 0 0 0 0 -0 -0 -0 -1 -1 -1 -2 -2 -3 -3 -3 -3 -3 -3 -2 -1 -1 -1 -1 -1 -1 -1 -1 -1 -2 -2
0 0 0 0 0 0 0 0 0 -0 -0 -0 -0 -0 -1 -1 -1 -1 -2 -2 -3 -3 -3 -3 -3 -3 -4 -3 -2 -2 -2 -2 -2 -2 -2 -1 -2 -2
-0 -0 0 -0 -0 -0 -0 -0 -0 -1 -1 -1 -1 -1 -1 -1 -2 -2 -2 -2 -3 -3 -3 -3 -4 -4 -4 -4 -3 -2 -2 -2 -2 -2 -2 -2 -2 -2
-1 -1 -0 -0 -0 -0 -1 -1 -1 -1 -1 -1 -1 -2 -2 -2 -2 -2 -2 -2 -3 -3 -3 -3 -3 -4 -4 -4 -4 -3 -3 -2 -2 -3 -2 -2 -2 -2
-1 -1 -1 -1 -1 -1 -1 -1 -1 -1 -2 -2 -2 -2 -2 -2 -2 -3 -3 -3 -3 -3 -3 -3 -3 -3 -3 -3 -3 -3 -3 -3 -3 -3 -2 -2 -2 -2
-1 -1 -1 -1 -1 -1 -1 -1 -2 -2 -2 -2 -2 -2 -2 -3 -3 -3 -3 -3 -3 -3 -3 -3 -3 -3 -3 -3 -3 -3 -3 -3 -3 -3 -3 -2 -2 -2
-2 -2 -2 -2 -2 -2 -2 -2 -2 -2 -3 -3 -3 -3 -3 -3 -3 -3 -4 -4 -4 -4 -4 -3 -3 -3 -3 -3 -3 -3 -3 -3 -3 -3 -3 -3 -2 -2
-2 -2 -2 -2 -2 -2 -2 -3 -3 -3 -3 -3 -3 -3 -3 -3 -3 -4 -4 -4 -4 -4 -4 -4 -4 -4 -4 -4 -3 -3 -4 -3 -3 -3 -3 -3 -3 -2
-3 -3 -3 -3 -3 -3 -3 -3 -3 -3 -4 -4 -4 -4 -4 -4 -4 -4 -4 -4 -4 -4 -4 -4 -4 -4 -5 -5 -4 -3 -3 -4 -4 -3 -3 -3 -3 -2
-3 -3 -3 -3 -3 -3 -3 -3 -4 -4 -4 -4 -4 -4 -4 -4 -4 -4 -4 -4 -4 -4 -4 -4 -4 -4 -4 -4 -4 -4 -3 -3 -4 -4 -3 -3 -3 -3
-3 -3 -3 -3 -3 -4 -4 -4 -4 -4 -4 -4 -4 -4 -4 -4 -4 -4 -5 -5 -5 -4 -4 -4 -4 -4 -4 -4 -4 -4 -3 -3 -3 -3 -3 -4 -4 -4
-4 -4 -4 -4 -4 -4 -4 -4 -4 -4 -5 -5 -5 -5 -5 -5 -5 -5 -5 -5 -5 -5 -4 -4 -4 -4 -4 -4 -4 -4 -3 -3 -3 -3 -3 -3 -4 -4
Wind_Speed
3 3 2 1 1 1 2 2 2 3 4 3 3 4 7 9 10 11 11 13 15 16 16 16 17 17 18 18 18 18 19 20 20 21 22 22 23 23
2 3 2 2 1 1 2 2 2 3 4 4 5 6 7 8 11 11 11 14 14 15 16 16 17 17 17 17 18 19 19 20 20 21 22 22 22 23
3 3 3 2 1 1 1 1 2 3 5 5 5 6 8 8 9 10 11 11 12 14 15 16 17 17 17 17 18 19 19 20 20 21 21 22 22 22
3 3 2 2 2 2 2 2 2 3 4 6 6 6 8 8 9 10 10 11 11 14 15 16 17 16 16 17 18 18 19 19 20 20 21 21 22 22
3 3 3 3 2 2 2 2 2 3 3 5 6 5 6 7 8 9 9 9 11 12 14 15 16 16 16 17 17 18 18 19 19 20 21 21 21 21
3 3 3 3 3 2 2 2 2 3 3 4 5 5 6 7 7 8 9 9 9 10 12 14 15 15 15 15 16 17 18 19 20 20 21 21 21 21
3 2 2 2 2 2 2 2 2 3 3 3 4 5 6 6 7 7 9 9 9 7 9 10 10 10 11 13 14 17 18 19 20 20 20 21 20 20
3 2 2 2 1 2 2 3 3 3 3 4 4 6 7 7 7 7 8 8 7 6 9 10 9 9 9 11 15 18 18 18 19 20 21 21 20 19
3 3 2 1 1 1 2 2 2 3 4 5 5 6 7 7 7 8 8 9 9 8 9 8 8 9 10 12 16 17 17 18 19 20 20 20 19 19
2 2 2 2 1 1 1 2 3 3 4 4 5 6 6 7 7 7 8 8 8 6 7 7 8 9 10 11 13 15 17 18 18 19 19 19 19 19
2 2 2 1 1 1 1 2 3 3 4 5 6 6 7 7 7 5 6 6 7 6 5 5 7 9 9 8 10 15 16 17 18 19 19 19 19 18
1 1 2 1 1 1 1 2 3 4 4 5 5 5 5 5 5 4 5 5 6 5 5 6 6 7 6 6 9 11 12 15 17 18 18 18 18 13
2 1 1 1 1 1 1 1 2 4 3 4 4 4 4 4 5 6 5 4 5 5 5 6 6 6 6 7 8 9 10 10 12 12 14 17 18 15
2 1 1 0 1 1 1 2 2 2 2 2 3 3 4 5 5 7 7 7 6 7 8 7 5 7 7 8 8 9 10 10 10 9 10 15 15 16
1 2 1 1 1 1 2 2 2 1 2 2 3 4 4 5 5 6 7 7 7 7 7 7 6 7 7 7 7 9 9 9 8 9 10 10 10 10
2 3 3 3 2 2 2 2 2 2 2 3 3 4 4 4 4 5 5 6 6 6 7 8 8 7 7 8 8 8 8 7 9 10 10 10 9 9
2 1 1 1 1 1 1 2 2 2 2 3 3 4 4 4 5 5 5 5 5 6 8 7 9 7 6 7 7 7 8 8 9 9 9 9 9 9
3 2 1 0 0 1 1 1 2 2 3 3 3 3 4 4 5 5 5 5 5 6 7 8 8 7 5 3 3 6 7 8 9 9 8 8 9 9
2 1 1 0 0 1 1 1 2 2 3 3 3 4 4 4 4 5 5 5 6 6 6 6 7 6 7 8 5 5 7 9 8 8 7 7 7 9
1 1 1 1 1 1 1 1 2 2 2 3 3 3 4 4 4 5 5 6 6 6 6 6 6 6 6 6 6 7 9 8 7 7 7 7 6 8
1 1 1 1 1 1 1 2 2 2 3 3 3 3 4 4 4 4 5 7 6 5 6 7 7 9 6 5 5 6 7 9 8 6 6 6 6 6
1 1 1 1 1 1 1 2 2 2 3 3 3 3 3 3 4 5 5 5 5 5 6 7 7 6 5 4 6 7 8 9 10 9 7 5 4 4
1 1 1 1 1 1 1 2 2 3 3 3 3 3 3 3 4 4 5 5 5 6 6 6 6 5 5 5 5 6 8 9 7 7 7 10 10 9
Wind_Direction
185 189 197 195 201 222 230 236 270 290 285 292 305 308 320 317 321 320 319 322 321 320 319 320 321 322 323 324 325 324 324 323 322 321 320 319 318 318
178 188 196 201 199 220 227 235 251 270 279 293 300 309 314 313 318 318 316 319 316 320 320 321 321 322 324 325 325 324 324 323 322 321 320 319 318 318
173 182 199 202 207 223 237 245 261 273 278 292 299 308 310 313 316 317 318 316 315 319 319 320 322 323 324 325 324 325 325 324 323 322 322 321 320 319
180 180 194 209 218 229 241 255 271 281 284 291 301 306 309 313 314 315 318 316 315 319 319 320 322 323 324 326 326 326 326 325 324 324 324 323 322 321
183 187 197 211 226 237 254 264 276 286 286 289 299 308 310 316 316 316 318 317 319 319 319 320 321 321 322 325 326 326 327 327 326 326 326 326 325 325
186 194 203 215 233 243 255 271 284 289 293 294 300 309 313 320 321 322 323 324 320 321 323 321 320 321 320 324 326 327 328 328 329 330 330 329 329 328
185 196 207 219 250 263 269 278 285 288 296 302 305 311 315 322 324 323 320 321 317 321 325 322 321 319 322 324 326 329 329 330 332 333 333 332 331 330
182 191 201 207 224 244 277 288 292 287 291 296 303 306 311 315 320 319 320 323 320 331 327 318 320 318 322 325 329 330 331 332 333 334 335 334 333 332
185 189 197 205 218 249 273 274 287 302 296 291 292 300 305 310 312 312 314 314 308 317 320 311 321 317 320 322 325 328 332 334 334 335 336 336 335 334
188 195 199 205 221 277 292 301 308 309 306 297 293 298 304 308 306 305 304 308 307 311 322 307 318 319 318 319 326 330 331 333 335 337 338 338 337 335
177 191 193 207 206 319 297 308 316 323 331 321 314 311 315 318 321 317 321 323 321 322 334 319 316 319 314 316 328 330 329 332 335 338 339 340 339 335
173 184 186 222 235 288 288 295 309 323 328 331 332 335 333 333 331 322 315 317 321 316 336 330 319 329 318 313 325 331 332 332 334 336 339 340 341 337
179 196 201 205 252 288 312 306 322 326 320 323 328 333 336 336 337 334 327 311 306 301 316 324 313 317 309 311 318 325 331 333 333 335 338 340 340 340
186 194 183 182 330 352 355 356 0 346 327 325 326 328 328 330 332 332 329 321 308 299 305 311 301 307 312 311 314 322 328 331 332 335 338 338 337 337
162 141 130 122 39 39 22 21 20 357 338 327 323 321 323 323 326 328 332 332 328 323 318 317 310 307 305 304 309 316 322 325 333 337 338 336 335 334
121 126 121 105 78 53 37 32 14 350 334 327 324 322 327 331 330 332 332 335 333 332 336 332 326 317 312 304 305 312 320 322 329 334 336 334 334 338
131 122 102 96 71 42 19 8 359 354 348 339 333 330 331 331 331 333 332 331 332 330 332 334 331 323 309 308 307 313 321 324 328 335 337 336 336 341
135 141 147 147 23 346 342 344 348 345 341 336 332 332 328 327 329 332 333 332 331 330 331 333 335 334 331 336 323 315 323 325 329 333 337 338 339 342
132 147 175 208 267 292 305 318 328 333 330 329 328 327 326 325 325 328 333 333 332 330 330 333 339 344 345 341 338 344 329 328 331 334 337 336 335 336
146 167 198 231 252 268 295 309 319 324 324 324 324 323 324 324 322 325 328 330 329 327 329 335 340 340 333 322 317 323 332 327 329 331 334 336 336 333
178 199 216 228 243 266 291 302 305 308 313 314 317 320 322 321 321 322 325 328 328 327 328 329 326 325 314 310 316 329 338 345 337 327 332 337 346 357
207 228 258 268 258 262 280 290 300 305 309 311 313 316 317 315 316 320 324 325 325 324 321 322 329 337 342 340 334 334 339 344 353 356 355 352 352 356
243 251 262 269 267 270 273 281 291 298 304 308 309 310 312 314 316 317 321 322 323 325 329 332 340 346 346 338 335 338 342 348 354 3 8 9 4 355
Height
1512 1512 1512 1512 1512 1512 1512 1511 1511 1509 1506 1504 1502 1500 1497 1495 1492 1488 1485 1482 1478 1474 1470 1466 1462 1458 1454 1450 1445 1441 1437 1433 1428 1424 1420 1416 1412 1408
1509 1509 1509 1509 1509 1509 1509 1508 1507 1507 1504 1501 1499 1497 1494 1492 1488 1485 1482 1478 1475 1471 1467 1463 1459 1455 1450 1446 1442 1437 1433 1428 1424 1420 1416 1411 1407 1403
1506 1506 1506 1506 1506 1506 1506 1505 1504 1503 1501 1498 1496 1494 1491 1488 1485 1482 1479 1475 1471 1468 1464 1460 1456 1451 1447 1442 1438 1433 1429 1424 1420 1416 1411 1406 1402 1397
1502 1503 1503 1504 1504 1503 1503 1502 1501 1500 1498 1495 1493 1490 1488 1485 1482 1479 1475 1472 1468 1465 1461 1457 1452 1448 1443 1439 1434 1430 1425 1421 1416 1411 1407 1402 1397 1393
1500 1500 1500 1501 1501 1500 1500 1499 1498 1497 1495 1493 1490 1488 1485 1482 1479 1476 1473 1469 1465 1462 1457 1453 1449 1444 1440 1435 1431 1426 1422 1417 1413 1408 1403 1398 1393 1388
1497 1497 1498 1498 1498 1497 1497 1496 1495 1494 1492 1490 1487 1485 1482 1480 1476 1473 1469 1466 1462 1458 1454 1450 1446 1441 1437 1432 1428 1423 1418 1413 1409 1404 1399 1394 1389 1384
1494 1494 1495 1495 1495 1494 1494 1493 1492 1491 1489 1487 1485 1482 1480 1477 1474 1470 1467 1463 1459 1455 1451 1447 1443 1438 1434 1429 1425 1420 1415 1410 1405 1401 1395 1390 1385 1380
1491 1491 1492 1492 1492 1491 1491 1490 1490 1488 1486 1485 1482 1480 1477 1475 1472 1469 1465 1460 1455 1453 1448 1444 1441 1436 1431 1427 1423 1418 1413 1408 1403 1397 1392 1387 1382 1377
1488 1489 1489 1489 1489 1488 1488 1487 1487 1485 1485 1483 1480 1478 1475 1473 1470 1467 1463 1459 1455 1451 1446 1441 1438 1433 1429 1425 1420 1415 1410 1405 1400 1395 1389 1384 1379 1374
1486 1486 1486 1486 1486 1486 1485 1484 1483 1483 1481 1480 1478 1476 1474 1471 1468 1465 1461 1457 1453 1450 1445 1440 1435 1431 1426 1422 1418 1413 1408 1403 1398 1392 1387 1382 1377 1372
1483 1483 1483 1484 1484 1483 1483 1482 1481 1480 1479 1477 1475 1473 1471 1469 1466 1463 1459 1455 1451 1447 1444 1439 1433 1428 1423 1420 1416 1411 1406 1401 1396 1391 1386 1381 1376 1371
1480 1481 1481 1481 1481 1481 1480 1479 1478 1477 1476 1474 1473 1471 1469 1466 1464 1461 1457 1453 1449 1446 1442 1438 1433 1428 1422 1417 1414 1410 1405 1400 1395 1390 1385 1380 1375 1369
1478 1478 1479 1479 1479 1479 1478 1477 1476 1475 1474 1472 1470 1469 1466 1464 1461 1459 1456 1453 1449 1445 1442 1438 1433 1429 1425 1417 1412 1409 1404 1399 1394 1389 1384 1379 1375 1370
1476 1476 1477 1477 1477 1477 1476 1475 1474 1473 1472 1470 1468 1466 1464 1461 1459 1457 1454 1451 1448 1445 1441 1438 1434 1429 1424 1418 1412 1407 1403 1399 1394 1389 1384 1379 1374 1370
1474 1474 1475 1475 1475 1474 1474 1473 1472 1471 1469 1468 1466 1464 1462 1460 1457 1455 1452 1449 1447 1444 1440 1437 1433 1429 1424 1419 1413 1408 1403 1398 1394 1389 1384 1379 1374 1370
1472 1472 1473 1473 1473 1472 1472 1471 1470 1469 1467 1466 1464 1463 1460 1458 1456 1453 1450 1447 1444 1441 1439 1435 1432 1428 1423 1419 1414 1409 1404 1400 1395 1390 1385 1380 1376 1371
1470 1470 1471 1470 1470 1470 1469 1468 1468 1467 1465 1464 1462 1461 1459 1457 1454 1452 1449 1446 1443 1440 1436 1434 1430 1426 1422 1418 1413 1409 1405 1400 1396 1391 1386 1380 1376 1373
1468 1468 1468 1468 1468 1468 1467 1466 1465 1465 1463 1462 1461 1459 1457 1455 1453 1450 1448 1445 1442 1439 1436 1432 1428 1424 1421 1417 1414 1409 1405 1401 1396 1392 1388 1382 1377 1374
1467 1466 1467 1467 1466 1466 1465 1465 1464 1463 1462 1460 1459 1458 1456 1454 1451 1449 1447 1445 1442 1439 1436 1432 1429 1425 1421 1416 1413 1411 1406 1401 1397 1393 1389 1385 1380 1376
1465 1465 1465 1465 1465 1464 1464 1463 1462 1461 1460 1459 1458 1456 1454 1452 1450 1448 1446 1444 1441 1438 1436 1433 1429 1426 1422 1419 1414 1410 1407 1402 1398 1394 1390 1386 1382 1379
1463 1463 1463 1463 1463 1462 1462 1461 1461 1460 1458 1457 1456 1455 1453 1451 1449 1448 1445 1443 1441 1438 1435 1432 1430 1427 1424 1420 1416 1411 1408 1405 1401 1396 1392 1388 1384 1380
1461 1462 1461 1461 1461 1461 1460 1460 1459 1458 1457 1456 1455 1454 1452 1450 1449 1447 1445 1443 1441 1438 1436 1433 1430 1427 1424 1420 1417 1413 1409 1406 1403 1399 1395 1392 1388 1384
1460 1460 1459 1459 1459 1459 1459 1458 1457 1456 1455 1455 1454 1452 1451 1449 1448 1446 1444 1442 1440 1438 1436 1433 1430 1427 1424 1422 1418 1415 1411 1408 1404 1401 1398 1395 1392 1389